Location: Emblem
(62.4273°N, 6.4710°E)
Time: 02:15:54
(UTC+02:00)

UWE-3 - Pass Details

Date: 23 March 2023
Orbit: 577 x 669 km, 97.7° (Epoch: 06 June)

Event Time Altitude Azimuth Distance (km) Brightness Sun altitude
Rises 04:26:55 0° 17° (NNE) 3,041 ? -14.0°
Reaches altitude 10° 04:29:11 10° 15° (NNE) 2,119 ? -13.8°
Maximum altitude 04:33:47 67° 294° (WNW) 729 ? -13.3°
Enters shadow 04:37:24 16° 214° (SSW) 1,720 ? -12.9°
